EUTELSAT QUANTUM

Last updated on Tue Oct 08 2024 00:02:41 GMT+0000 (Coordinated Universal Time)

1 49056U 21069B 24281.27410617 .00000136 00000+0 00000+0 0 9995 2 49056 0.0230 294.4991 0002231 271.5402 316.7763 1.00274252 11725
UTC large
Height (km)
Speed (km/s)
/
Latitude / Longitude
Inclination (degrees)
Orbital Period (minutes)
Azimuth
Elevation
Range (km)
Doppler Factor

Next 0 passes for location: London (51.5072 / 0.1276)

Sorry there are no passes over London.